Weather History for Middletown, OH

Change the Weather History Date:

Thursday, September 19, 2013

  Actual Average (KDAY) Record (KDAY)
Temperature  
Mean Temperature 70 °F 64 °F  
Max Temperature 79 °F 75 °F 95 °F (1908)
Min Temperature 62 °F 54 °F 34 °F (1901)
Degree Days  
Heating Degree Days 0 3  
Month to date heating degree days 32  
Since 1 July heating degree days 34  
Cooling Degree Days 6 3  
Month to date cooling degree days 80  
Year to date cooling degree days 862  
Growing Degree Days 20 (Base 50)    
Moisture  
Dew Point 63 °F    
Average Humidity 80    
Maximum Humidity 89    
Minimum Humidity 53    
Precipitation  
Precipitation 0.00 in 0.11 in 0.94 in (1966)
Month to date precipitation 2.11  
Year to date precipitation 30.42  
Snow  
Snow 0.00 in 0.00 in - ()
Month to date snowfall 0.0  
Since 1 July snowfall 0.0  
Since 1 September snowfall 0.0  
Snow Depth -    
Sea Level Pressure  
Sea Level Pressure 30.07 in    
Wind  
Wind Speed 3 mph (SW)    
Max Wind Speed 10 mph    
Max Gust Speed -    
Visibility 6 miles    
Events Fog , Rain    
T = Trace of Precipitation, MM = Missing Value Source: NWS Daily Summary

Daily Weather History Graph

Daily Weather History Graph

Search for Another Location

Airport:

Trip Planner

Search our weather history database for the weather conditions in past years. The results will help you decide how hot, cold, wet, or windy it might be!

Date:

Astronomy

Sep. 19, 2013 Rise Set
Actual Time 7:22 AM EDT 7:39 PM EDT
Civil Twilight 6:55 AM EDT 8:06 PM EDT
Nautical Twilight 6:24 AM EDT 8:37 PM EDT
Astronomical Twilight 5:51 AM EDT 9:09 PM EDT
Moon 7:37 PM EDT (9/19) 7:30 AM EDT (9/19)
Length of Visible Light 13h 10m
Length of Day
12h 16m
Full, 100% of the Moon is Illuminated
Sep 19
Full
Sep 26
Last Quarter
Oct 4
New
Oct 11
First Quarter
Oct 18
Full

Hourly Weather History & Observations

Time (EDT) Temp. Dew Point Humidity Pressure Visibility Wind Dir Wind Speed Gust Speed Precip Events Conditions
12:15 AM 67.6 °F 62.6 °F 84% 30.11 in 5.0 mi SSW 4.6 mph - N/A   Haze
12:35 AM 67.6 °F 62.8 °F 84% 30.10 in 5.0 mi Calm Calm - N/A   Haze
12:55 AM 67.6 °F 63.5 °F 87% 30.10 in 4.0 mi South 3.5 mph - N/A   Haze
1:15 AM 67.6 °F 63.5 °F 87% 30.10 in 4.0 mi SSE 3.5 mph - N/A   Overcast
1:35 AM 67.6 °F 63.1 °F 85% 30.10 in 4.0 mi South 4.6 mph - N/A   Haze
1:55 AM 65.3 °F 60.8 °F 85% 30.10 in 3.0 mi Calm Calm - N/A   Scattered Clouds
2:15 AM 65.3 °F 61.0 °F 86% 30.10 in 2.0 mi Calm Calm - N/A   Mostly Cloudy
2:35 AM 63.0 °F 59.0 °F 87% 30.09 in 0.5 mi Calm Calm - N/A Fog Fog
2:55 AM 62.6 °F 59.0 °F 88% 30.09 in 0.2 mi Calm Calm - N/A Fog Fog
3:15 AM 65.3 °F 61.3 °F 87% 30.09 in 0.8 mi Calm Calm - N/A   Mist
3:35 AM 64.0 °F 60.6 °F 89% 30.08 in 1.0 mi Calm Calm - N/A   Mist
3:55 AM 62.6 °F 59.0 °F 88% 30.09 in 1.8 mi Calm Calm - N/A   Mist
4:15 AM 62.6 °F 59.0 °F 88% 30.09 in 1.2 mi Calm Calm - N/A   Scattered Clouds
4:35 AM 62.6 °F 59.0 °F 88% 30.08 in 1.8 mi Calm Calm - N/A   Scattered Clouds
4:55 AM 63.1 °F 59.7 °F 89% 30.08 in 2.5 mi Calm Calm - N/A   Mostly Cloudy
5:15 AM 65.3 °F 61.7 °F 88% 30.09 in 2.5 mi Calm Calm - N/A   Overcast
5:35 AM 65.3 °F 61.7 °F 88% 30.08 in 2.5 mi Calm Calm - N/A   Mostly Cloudy
5:55 AM 65.3 °F 61.7 °F 88% 30.08 in 2.0 mi Calm Calm - N/A   Overcast
6:15 AM 65.3 °F 61.7 °F 88% 30.08 in 2.5 mi Calm Calm - N/A   Overcast
6:35 AM 67.6 °F 64.4 °F 89% 30.08 in 5.0 mi Calm Calm - N/A   Overcast
6:55 AM 67.6 °F 63.9 °F 88% 30.08 in 5.0 mi South 3.5 mph - N/A   Overcast
7:15 AM 67.6 °F 63.7 °F 87% 30.09 in 4.0 mi Calm Calm - N/A Rain Rain
7:35 AM 67.6 °F 63.5 °F 87% 30.09 in 4.0 mi SSE 3.5 mph - N/A Rain Light Rain
7:55 AM 67.6 °F 63.5 °F 87% 30.10 in 4.0 mi Calm Calm - N/A Rain Light Rain
8:15 AM 67.6 °F 63.5 °F 87% 30.11 in 3.0 mi SW 4.6 mph - N/A Rain Rain
8:35 AM 67.6 °F 63.7 °F 87% 30.11 in 2.5 mi SSW 3.5 mph - N/A Rain Rain
8:55 AM 67.6 °F 63.7 °F 87% 30.10 in 3.0 mi SW 4.6 mph - N/A Rain Heavy Rain
9:15 AM 67.6 °F 63.7 °F 87% 30.10 in 1.8 mi SSW 5.8 mph - N/A Rain Rain
9:35 AM 67.6 °F 63.9 °F 88% 30.10 in 2.0 mi SSW 5.8 mph - N/A Rain Rain
9:55 AM 67.6 °F 63.7 °F 87% 30.10 in 4.0 mi SW 6.9 mph - N/A Rain Light Rain
10:15 AM 67.6 °F 63.7 °F 87% 30.10 in 5.0 mi SSW 5.8 mph - N/A Rain Light Rain
10:35 AM 67.6 °F 63.7 °F 87% 30.10 in 5.0 mi SSW 5.8 mph - N/A   Drizzle
10:55 AM 67.6 °F 63.7 °F 87% 30.11 in 5.0 mi SW 6.9 mph - N/A   Overcast
11:15 AM 67.6 °F 63.5 °F 87% 30.11 in 10.0 mi SW 8.1 mph - N/A   Overcast
11:35 AM 67.6 °F 63.0 °F 85% 30.11 in 10.0 mi SW 6.9 mph - N/A   Overcast
11:55 AM 68.0 °F 63.1 °F 84% 30.11 in 10.0 mi SW 6.9 mph - N/A   Overcast
12:15 PM 71.8 °F 66.2 °F 83% 30.10 in 10.0 mi SSW 6.9 mph - N/A   Mostly Cloudy
12:35 PM 72.7 °F 65.1 °F 77% 30.10 in 10.0 mi SW 8.1 mph - N/A   Mostly Cloudy
12:55 PM 72.7 °F 65.1 °F 77% 30.10 in 10.0 mi SSW 5.8 mph - N/A   Mostly Cloudy
1:15 PM 72.7 °F 64.2 °F 75% 30.09 in 10.0 mi SSW 8.1 mph - N/A   Overcast
1:35 PM 75.2 °F 65.5 °F 72% 30.08 in 10.0 mi SSW 6.9 mph - N/A   Overcast
1:55 PM 75.2 °F 64.4 °F 69% 30.08 in 10.0 mi SSW 6.9 mph - N/A   Overcast
2:15 PM 75.2 °F 64.0 °F 68% 30.07 in 10.0 mi WSW 9.2 mph - N/A   Overcast
2:35 PM 75.6 °F 63.7 °F 66% 30.06 in 10.0 mi WSW 6.9 mph - N/A   Overcast
2:55 PM 77.9 °F 64.2 °F 63% 30.07 in 10.0 mi West 8.1 mph - N/A   Mostly Cloudy
3:15 PM 77.9 °F 62.2 °F 58% 30.06 in 10.0 mi West 5.8 mph - N/A   Overcast
3:35 PM 77.9 °F 61.2 °F 56% 30.05 in 10.0 mi West 6.9 mph - N/A   Overcast
3:55 PM 79.0 °F 61.2 °F 54% 30.05 in 10.0 mi WNW 8.1 mph - N/A   Mostly Cloudy
4:15 PM 78.4 °F 61.0 °F 55% 30.04 in 10.0 mi West 5.8 mph - N/A   Mostly Cloudy
4:35 PM 78.3 °F 61.3 °F 56% 30.04 in 10.0 mi WSW 9.2 mph - N/A   Mostly Cloudy
4:55 PM 79.2 °F 60.6 °F 53% 30.04 in 10.0 mi West 10.4 mph - N/A   Mostly Cloudy
5:15 PM 77.9 °F 60.3 °F 54% 30.04 in 10.0 mi West 5.8 mph - N/A   Scattered Clouds
5:35 PM 77.9 °F 61.2 °F 56% 30.03 in 10.0 mi West 5.8 mph - N/A   Mostly Cloudy
5:55 PM 77.9 °F 60.6 °F 55% 30.03 in 10.0 mi West 3.5 mph - N/A   Scattered Clouds
6:15 PM 77.9 °F 63.0 °F 60% 30.04 in 10.0 mi WSW 4.6 mph - N/A   Mostly Cloudy
6:35 PM 75.2 °F 65.1 °F 71% 30.03 in 5.0 mi Calm Calm - N/A Rain Light Rain
6:55 PM 75.2 °F 68.4 °F 79% 30.04 in 10.0 mi Calm Calm - N/A Rain Rain
7:15 PM 72.7 °F 66.6 °F 81% 30.03 in 10.0 mi East 3.5 mph - N/A   Mostly Cloudy
7:35 PM 72.7 °F 67.5 °F 84% 30.02 in 10.0 mi Calm Calm - N/A   Mostly Cloudy
7:55 PM 72.7 °F 68.2 °F 86% 30.02 in 10.0 mi Calm Calm - N/A   Scattered Clouds
8:15 PM 70.0 °F 65.7 °F 86% 30.00 in 7.0 mi Calm Calm - N/A   Clear
8:35 PM 67.6 °F 63.7 °F 87% 30.00 in 7.0 mi Calm Calm - N/A   Clear
8:55 PM 72.7 °F 66.6 °F 81% 29.99 in 10.0 mi SW 6.9 mph - N/A   Clear
9:15 PM 72.7 °F 65.5 °F 78% 30.00 in 10.0 mi SSW 5.8 mph - N/A   Clear
9:35 PM 72.7 °F 65.5 °F 78% 30.01 in 10.0 mi SSW 5.8 mph - N/A   Clear
9:55 PM 72.7 °F 66.2 °F 80% 30.01 in 10.0 mi Calm Calm - N/A   Clear
10:15 PM 67.6 °F 62.8 °F 84% 30.02 in 10.0 mi Calm Calm - N/A   Clear
10:35 PM 67.6 °F 63.0 °F 85% 30.02 in 10.0 mi Calm Calm - N/A   Clear
10:55 PM 67.6 °F 63.5 °F 87% 30.02 in 5.0 mi Calm Calm - N/A   Haze
11:15 PM 67.6 °F 63.5 °F 87% 30.02 in 4.0 mi Calm Calm - N/A   Clear
11:35 PM 67.6 °F 63.9 °F 88% 30.02 in 4.0 mi Calm Calm - N/A   Scattered Clouds
11:55 PM 67.6 °F 63.9 °F 88% 30.03 in 2.5 mi Calm Calm - N/A   Scattered Clouds